Theta_e
351 350 349 350 349 350 348 347 349 346 346 348 349 349 349 349 350 351 351 350 343 343 343 343 344 344 344 344 343 343 343 343 343 342 342 341 341 341
350 349 349 351 350 350 350 347 346 345 345 348 348 349 350 350 351 350 350 351 346 342 341 342 340 340 341 341 341 342 342 342 343 344 343 343 342 343
351 351 351 348 351 349 348 347 348 348 346 345 348 348 344 347 348 353 353 353 350 347 343 344 343 343 343 343 343 343 342 342 343 340 343 343 343 344
349 349 350 351 348 349 350 350 349 349 350 349 347 350 349 351 348 347 349 348 348 348 348 348 348 346 344 342 341 340 342 342 342 338 342 344 344 345
348 347 347 348 349 349 347 347 348 347 346 347 347 348 350 351 350 350 351 353 351 349 348 346 346 347 347 344 340 337 338 343 342 342 343 342 344 344
348 347 347 348 348 348 347 347 347 346 346 346 347 347 346 346 346 347 346 346 347 348 349 350 350 349 348 347 347 346 340 340 342 342 344 344 343 342
344 343 346 342 342 345 347 348 348 348 349 348 347 347 347 348 347 347 346 347 349 343 346 347 348 348 350 346 347 348 349 349 348 342 340 340 340 340
340 340 341 336 340 334 335 338 339 340 341 345 342 341 340 342 341 341 342 342 341 340 337 338 338 338 342 341 340 339 339 343 347 348 348 347 343 341
338 338 338 341 339 337 335 333 334 336 335 332 331 335 338 338 339 337 338 340 341 341 341 339 338 337 338 338 338 337 337 336 336 337 337 339 343 342
335 335 334 334 334 334 329 328 335 337 337 338 339 339 339 337 337 337 337 334 335 335 337 339 338 338 337 338 338 338 338 337 338 337 338 335 331 339
333 333 331 332 327 326 325 325 332 333 333 333 332 332 331 329 331 332 334 334 333 334 334 334 335 336 337 336 339 337 337 339 339 340 340 338 336 335
331 330 328 325 323 324 324 325 331 332 332 333 331 331 333 333 333 333 333 335 336 338 336 336 337 337 336 338 338 339 341 339 339 339 339 338 338 339
328 330 328 323 319 318 320 322 323 323 324 329 330 331 331 333 332 332 333 334 333 334 335 335 336 336 335 336 337 337 337 338 338 338 338 336 337 337
327 327 323 315 314 315 318 320 322 323 327 327 327 327 328 328 327 327 327 327 330 330 330 330 332 333 334 334 336 336 336 337 337 335 335 336 336 339
322 315 313 314 316 318 320 321 323 325 325 325 325 324 324 324 325 324 325 325 326 327 328 329 329 329 330 332 332 333 334 334 334 335 334 335 336 335
317 316 316 319 320 321 322 322 323 322 323 323 322 323 322 322 322 323 323 323 324 325 325 325 325 326 326 327 328 329 331 331 332 333 333 334 335 335
310 322 323 322 322 321 320 319 317 318 318 319 320 320 320 319 318 319 319 319 320 321 321 322 321 320 321 321 324 326 326 327 328 328 329 331 331 333
314 321 320 318 317 316 315 314 313 313 313 314 315 315 315 314 314 315 314 315 316 316 317 318 320 321 320 320 321 323 324 324 323 324 325 326 328 330
317 317 316 315 314 313 313 313 312 312 312 313 313 313 313 313 314 314 314 314 315 316 316 316 317 318 316 317 318 320 321 320 322 323 323 324 324 326
315 315 315 314 314 313 313 313 313 312 312 313 313 313 314 314 314 314 315 315 315 316 316 317 317 316 317 318 318 318 316 317 319 317 317 320 321 323
315 314 314 313 314 314 314 315 314 315 312 313 313 312 313 313 313 313 313 313 314 315 315 315 315 315 317 317 317 317 317 317 317 315 315 317 319 317
314 313 313 313 313 314 315 315 316 315 314 312 311 311 311 312 311 311 312 312 313 313 313 314 313 314 315 316 316 316 316 317 317 316 316 315 315 314
313 313 314 314 314 314 315 315 315 315 314 312 310 310 310 311 311 312 312 312 312 312 312 311 312 313 313 314 314 314 314 315 315 314 314 315 315 314
Wind_Speed
13 14 12 9 11 8 7 7 6 5 8 8 8 12 11 12 14 14 15 20 18 20 23 23 24 26 27 27 27 27 28 28 28 27 27 27 27 26
11 12 12 13 11 11 9 9 8 8 7 10 13 9 11 11 13 14 13 16 18 17 18 19 20 20 20 22 25 27 28 30 33 34 31 29 27 26
13 11 14 16 14 12 13 11 10 10 10 10 10 14 15 18 15 13 11 13 15 17 17 19 21 21 22 22 24 25 27 30 32 34 34 31 30 30
12 14 15 14 17 19 12 12 15 15 13 12 14 6 9 13 16 17 18 17 18 20 18 19 25 28 29 29 29 29 28 28 28 26 31 30 30 31
11 11 12 13 14 15 17 19 18 20 20 19 17 15 16 14 14 17 16 16 18 19 23 27 27 23 21 23 27 30 30 27 25 23 27 29 31 31
3 3 7 9 11 11 13 14 15 16 16 17 17 18 20 20 21 22 23 23 24 23 20 22 21 21 26 28 24 22 24 27 27 26 28 29 31 31
3 3 6 7 6 7 5 7 7 8 9 10 11 13 13 14 16 16 17 14 15 15 15 15 18 18 21 21 21 20 22 22 21 27 30 32 34 34
3 3 5 10 8 8 11 13 14 14 13 11 13 15 13 12 14 13 14 15 17 14 16 20 19 21 22 22 23 24 22 23 26 29 31 33 33 33
3 4 2 7 13 13 11 9 8 11 14 16 18 16 16 16 16 19 16 17 17 17 18 20 20 23 23 23 24 24 28 29 30 31 33 34 33 33
3 4 8 14 16 18 16 12 9 14 14 12 10 14 15 18 18 21 20 22 22 20 19 23 19 22 20 21 22 21 24 26 26 25 26 29 32 31
3 4 4 8 11 10 10 9 8 8 8 13 15 19 22 22 23 22 17 17 20 18 16 21 22 22 20 20 19 23 24 24 21 20 21 20 22 26
4 10 13 11 10 10 9 8 7 7 11 10 12 11 13 11 13 13 12 16 15 16 12 17 15 17 24 23 17 12 16 13 17 18 19 23 23 26
2 3 11 12 11 9 8 8 8 7 7 6 8 7 9 8 10 13 13 15 14 18 18 22 18 19 22 25 23 20 20 20 19 21 22 24 23 27
3 6 12 7 8 7 5 5 4 3 5 6 5 6 6 5 10 14 16 18 17 22 23 21 21 21 23 23 21 20 20 19 22 25 27 25 23 25
7 7 7 6 5 3 5 4 6 4 2 3 4 6 6 7 8 8 8 11 10 12 12 13 18 21 17 18 21 20 18 19 20 21 22 24 28 27
5 5 7 5 7 2 7 8 3 4 4 3 4 5 7 8 9 8 9 9 9 9 9 12 17 18 16 15 18 20 20 23 24 25 28 28 26 25
4 1 2 1 0 1 2 2 3 3 3 3 4 4 4 5 6 6 7 8 8 9 9 11 16 12 12 15 15 13 18 20 18 20 21 21 20 22
3 3 2 2 2 1 1 0 2 3 3 4 3 3 4 5 6 6 8 8 9 10 11 13 14 16 16 14 16 12 13 16 19 19 21 21 23 22
4 4 4 3 3 2 2 1 0 2 4 3 3 4 5 6 6 6 7 8 9 10 11 12 12 14 18 17 15 17 18 20 19 21 19 19 22 23
3 5 5 5 4 3 2 2 2 1 2 1 2 3 4 5 6 6 7 9 10 9 11 11 12 14 14 16 21 20 17 18 17 22 22 21 20 20
7 6 6 6 6 5 5 4 2 3 3 2 1 2 4 5 6 7 7 10 11 11 11 12 14 17 16 17 17 18 19 17 23 20 21 20 22 25
8 9 8 8 8 7 7 5 3 5 4 3 3 3 4 4 6 7 8 9 10 11 12 14 14 15 15 15 18 20 20 20 19 21 21 18 21 23
10 9 9 9 9 9 7 6 6 6 5 5 4 4 4 4 5 6 7 8 9 10 11 15 15 14 15 16 18 20 20 21 20 24 23 24 24 24
Wind_Direction
239 228 230 244 213 221 240 243 245 221 221 224 215 216 226 225 229 242 252 255 257 250 251 255 260 263 264 264 264 265 266 268 268 268 270 270 270 271
233 249 231 233 237 227 233 243 243 258 267 216 209 255 213 222 244 258 255 246 261 254 252 255 259 264 264 263 265 267 268 269 268 265 264 266 267 266
226 237 245 232 226 236 246 248 255 254 254 242 232 223 230 255 253 263 271 269 269 279 272 268 263 264 265 266 268 270 273 274 279 267 255 260 263 267
241 236 237 239 234 226 240 244 240 244 251 263 258 279 249 268 282 259 256 259 264 271 285 276 275 275 272 270 272 274 275 276 283 267 250 257 262 268
260 258 247 248 246 244 243 242 246 251 247 253 251 256 261 251 264 267 262 254 258 267 269 273 280 280 278 278 277 275 271 275 275 263 258 261 268 273
312 297 264 251 250 250 250 253 253 257 253 253 254 256 257 259 261 266 267 269 265 259 257 271 276 274 274 278 283 283 279 273 273 269 266 267 270 272
279 315 278 292 270 263 250 265 258 261 262 270 274 283 292 286 283 299 295 290 284 295 288 279 275 276 277 285 282 287 283 280 278 270 268 269 270 271
289 270 279 313 307 287 269 261 265 267 266 270 272 276 293 293 282 287 288 291 288 273 288 279 275 277 274 279 281 285 288 284 279 277 276 276 273 271
286 274 248 275 233 252 272 284 294 294 282 277 271 270 278 279 274 273 277 274 276 275 283 280 275 277 273 272 269 273 276 278 281 283 282 279 275 270
267 270 253 258 257 263 268 268 268 259 273 280 270 268 261 259 261 268 274 283 288 291 283 274 285 278 283 282 285 282 281 282 285 288 296 290 280 276
266 260 248 292 279 276 277 274 282 285 282 281 273 271 275 274 270 274 280 286 286 285 286 287 286 286 286 286 283 284 284 284 278 282 297 305 309 296
268 281 300 299 303 302 291 290 291 274 241 245 273 301 301 290 282 276 267 269 279 288 276 308 302 294 291 288 284 294 295 294 288 282 277 291 297 293
217 282 285 302 308 304 294 287 283 281 270 314 305 305 289 301 319 298 285 274 283 281 276 292 297 291 287 294 291 289 291 294 298 305 304 300 292 298
202 241 271 304 314 315 310 312 333 6 16 305 306 312 308 303 268 272 273 280 270 277 286 288 295 293 292 295 292 287 283 285 288 286 285 282 287 288
220 267 289 308 329 327 8 23 43 18 326 323 313 313 314 318 317 304 299 285 309 314 306 299 296 289 301 307 302 303 307 299 291 295 296 291 287 288
308 322 358 36 45 99 36 30 21 38 68 19 6 355 6 5 2 356 340 341 344 339 321 309 294 298 305 301 297 299 298 299 296 287 283 287 283 281
238 172 347 9 83 74 38 54 22 51 61 33 8 5 346 350 341 350 347 347 350 337 333 325 324 336 336 327 316 313 309 307 302 300 301 300 293 294
162 173 186 171 181 181 155 37 354 26 28 23 15 360 352 355 354 352 349 353 349 343 338 338 339 337 338 343 337 340 335 328 324 314 306 305 305 302
124 200 193 196 209 196 175 164 273 323 44 12 14 2 353 345 356 354 358 355 351 345 345 346 340 335 331 328 334 333 327 332 333 334 328 316 319 314
181 219 221 214 212 206 212 229 244 328 336 341 4 349 341 338 338 345 353 347 344 350 343 340 338 336 330 323 324 331 333 331 335 332 329 325 319 319
237 232 229 228 227 222 230 234 239 270 278 271 326 340 321 326 327 334 341 337 343 340 334 333 328 331 329 321 319 326 329 321 334 330 334 332 334 335
237 231 229 227 230 232 236 241 238 270 267 286 289 302 303 321 325 335 337 336 334 329 329 326 329 328 325 322 322 322 323 324 324 333 330 332 333 325
241 234 231 235 235 238 241 245 247 251 266 280 285 293 301 317 324 326 326 327 327 330 330 333 333 331 325 321 323 323 321 323 327 322 323 334 332 316